Location: Quaker Farms
(41.4276°N, 73.1557°W)
Time: 00:52:56
(UTC+00:00)

Altair - Pass Details

Date: 17 June 2021
Orbit: 1501 x 1682 km, 47.2° (Epoch: 23 July)

Event Time Altitude Azimuth Distance (km) Brightness Sun altitude
Rises 22:34:28 0° 287° (WNW) 4,785 11.8 18.7°
Reaches altitude 10° 22:37:33 10° 290° (WNW) 3,824 12.1 18.1°
Maximum altitude 22:47:22 69° 14° (NNE) 1,739 8.1 16.4°
Drops below altitude 10° 22:57:27 10° 98° (E) 3,933 9.1 14.6°
Sets 23:00:41 0° 101° (E) 4,928 9.5 14.0°
